Home > Weather > Turin > Past weeks

Flag for Italy Past Weather in Turin, Italy — Yesterday and Last 2 Weeks

Now
70 °F

Clear.


Feels Like: 70 °F
Forecast: 65 / 85 °F
Wind: No wind

Location: Torino / Bric Della Croce

Current Time: Jul 27, 2016 at 5:58:07 AM

Latest Report: Jul 27, 2016 at 4:55 AM


Visibility: 10 mi

Pressure: 30.07 "Hg

Humidity: 83%

Dew Point: 64 °F

Location of TurinLocation

Past Weather in Turin — Graph

°F

Turin Temperature Yesterday

Maximum temperature yesterday: 81 °F (at 2:55 PM)
Minimum temperature yesterday: 66 °F (at 5:55 AM)
Average temperature yesterday: 73 °F

High & Low Weather Summary for the Past Weeks

 TemperatureHumidityPressure
High82 °F (Jul 18, 4:55 PM)100% (Jul 12, 4:55 AM)30.21 "Hg (Jul 12, 4:55 AM)
Low54 °F (Jul 14, 7:55 PM)17% (Jul 16, 9:55 PM)29.71 "Hg (Jul 13, 4:55 PM)
Average70 °F65%30.06 "Hg
* Reported Jul 12 3:55 AM — Jul 27 3:55 AM, Turin, Weather by CustomWeather, © 2016

Note: Actual official high and low records may vary slightly from our data, if they occured in-between our weather recording intervals... More about our weather records

Advertising

Turin Weather History for the Previous 24 Hours

Scroll right to see more
 ConditionsComfort  
Time TempWeatherWind HumidityBarometerVisibility
3:55 AM
Wed, Jul 27
70 °FClear.No wind78%30.07 "Hg10 mi
2:55 AM70 °FClear.No wind78%30.09 "Hg10 mi
1:55 AM70 °FClear.No wind78%30.09 "Hg10 mi
12:55 AM70 °FClear.3 mph83%30.09 "Hg10 mi
11:55 PM
Tue, Jul 26
68 °FClear.9 mph100%30.09 "Hg10 mi
10:55 PM70 °FClear.10 mph78%30.09 "Hg10 mi
9:55 PM72 °FScattered clouds.3 mph69%30.07 "HgN/A
8:55 PM73 °FPartly sunny.6 mph74%30.07 "HgN/A
7:55 PM75 °FPartly sunny.5 mph78%30.07 "HgN/A
6:55 PM77 °FScattered clouds.No wind65%30.07 "HgN/A
5:55 PM79 °FScattered clouds.No wind61%30.07 "HgN/A
4:55 PM79 °FThunderstorms. Scattered clouds.3 mph65%30.07 "HgN/A
3:55 PM81 °FScattered clouds.No wind54%30.07 "HgN/A
2:55 PM81 °FScattered clouds.No wind58%30.07 "HgN/A
1:55 PM77 °FScattered clouds.No wind65%30.09 "HgN/A
12:55 PM75 °FSunny.No wind74%30.09 "Hg10 mi
11:55 AM75 °FSunny.3 mph74%30.09 "Hg10 mi
10:55 AM73 °FSunny.6 mph78%30.09 "Hg10 mi
9:55 AM70 °FSunny.6 mph83%30.09 "Hg10 mi
8:55 AM70 °FSunny.No wind83%30.09 "Hg10 mi
7:55 AM70 °FSunny.7 mph83%30.09 "Hg10 mi
6:55 AM68 °FClear.No wind83%30.09 "Hg10 mi
5:55 AM66 °FClear.7 mph100%30.09 "Hg10 mi
Weather by CustomWeather, © 2016

See weather overviewHow to use our weather pages